Change the Weather History Date:

Thursday, November 27, 2014

  Actual Average Record
Temperature  
Mean Temperature 25 °F 14 °F  
Max Temperature 27 °F 20 °F 40 °F (1943)
Min Temperature 22 °F - -24 °F (1948)
Degree Days  
Heating Degree Days 40 52  
Month to date heating degree days 1045 1287  
Since 1 July heating degree days 3435 3942  
Cooling Degree Days 0    
Month to date cooling degree days 0  
Year to date cooling degree days 3  
Moisture  
Dew Point 21 °F    
Average Humidity 0    
Maximum Humidity 0    
Minimum Humidity 0    
Precipitation  
Precipitation 0.09 in 0.04 in 0.68 in (1972)
Month to date precipitation 1.01 1.12  
Year to date precipitation 13.24 15.63  
Snow  
Snow 1.90 in 0.40 in 7.00 in (1972)
Month to date snowfall 8.0 10.9  
Since 1 July snowfall 12.9 16.1  
Since 1 September snowfall 12.9 16.1  
Snow Depth 4.00 in    
Sea Level Pressure  
Sea Level Pressure 30.03 in    
Wind  
Wind Speed 23 mph (East)    
Max Wind Speed 30 mph    
Max Gust Speed 37 mph    
Visibility 6 miles    
Events Snow    
T = Trace of Precipitation, MM = Missing Value Source: NWS Daily Summary

Daily Weather History Graph

Daily Weather History Graph

Search for Another Location

Airport or City:

Trip Planner

Search our weather history database for the weather conditions in past years. The results will help you decide how hot, cold, wet, or windy it might be!

Date:

Astronomy

Nov. 27, 2014 Rise Set
Actual Time 11:13 AM AKST 4:24 PM AKST
Civil Twilight 10:03 AM AKST 5:34 PM AKST
Nautical Twilight 8:58 AM AKST 6:40 PM AKST
Astronomical Twilight 7:59 AM AKST 7:38 PM AKST
Moon 2:28 PM AKST (11/27) 11:36 PM AKST (11/27)
Length of Visible Light 7h 30m
Length of Day
5h 10m
Waxing Crescent, 33% of the Moon is Illuminated
Nov 27
Waxing Crescent
Nov 29
First Quarter
Dec 6
Full
Dec 14
Last Quarter
Dec 21
New

Hourly Weather History & Observations

Time (AKST) Temp. Windchill Dew Point Humidity Pressure Visibility Wind Dir Wind Speed Gust Speed Precip Events Conditions
12:08 AM 27.0 °F 13.5 °F 25.0 °F 92% 30.17 in 10.0 mi East 19.6 mph - N/A   Overcast
12:53 AM 26.1 °F 12.3 °F 25.0 °F 96% 30.17 in 10.0 mi East 19.6 mph - N/A   Overcast
1:34 AM 26.1 °F 13.1 °F 25.0 °F 96% 30.17 in 8.0 mi East 17.3 mph - N/A   Overcast
1:53 AM 26.1 °F 12.3 °F 25.0 °F 96% 30.17 in 9.0 mi East 19.6 mph - 0.00 in Snow Light Snow
2:16 AM 26.1 °F 11.6 °F 24.1 °F 92% 30.16 in 9.0 mi East 21.9 mph - 0.00 in Snow Light Snow
2:42 AM 26.1 °F 11.0 °F 24.1 °F 92% 30.15 in 8.0 mi East 24.2 mph 29.9 mph 0.00 in Snow Light Snow
2:53 AM 26.1 °F 11.3 °F 24.1 °F 92% 30.15 in 9.0 mi East 23.0 mph 31.1 mph 0.00 in Snow Light Snow
3:53 AM 25.0 °F 9.5 °F 23.0 °F 92% 30.14 in 9.0 mi East 24.2 mph - 0.00 in Snow Light Snow
4:45 AM 25.0 °F 10.2 °F 23.0 °F 92% 30.13 in 9.0 mi East 21.9 mph - 0.00 in Snow Light Snow
4:53 AM 25.0 °F 10.2 °F 23.0 °F 92% 30.13 in 9.0 mi East 21.9 mph - 0.00 in Snow Light Snow
5:00 AM 25.0 °F 10.6 °F 23.0 °F 92% 30.13 in 9.0 mi East 20.7 mph - 0.00 in Snow Light Snow
5:12 AM 24.1 °F 8.3 °F 23.0 °F 96% 30.13 in 9.0 mi East 24.2 mph - 0.00 in Snow Light Snow
5:53 AM 24.1 °F 8.0 °F 21.9 °F 91% 30.12 in 9.0 mi East 25.3 mph - 0.00 in Snow Light Snow
6:53 AM 24.1 °F 7.4 °F 21.9 °F 91% 30.11 in 10.0 mi East 27.6 mph 33.4 mph 0.00 in   Overcast
7:53 AM 24.1 °F 8.0 °F 21.0 °F 88% 30.10 in 2.5 mi East 25.3 mph 31.1 mph 0.00 in Snow Light Snow
8:51 AM 23.0 °F 6.9 °F 21.2 °F 93% 30.08 in 3.0 mi East 24.2 mph 31.1 mph 0.00 in Snow Light Snow
8:53 AM 23.0 °F 8.0 °F 21.0 °F 92% 30.09 in 3.0 mi East 20.7 mph 31.1 mph 0.00 in Snow Light Snow
9:53 AM 23.0 °F 8.0 °F 19.4 °F 86% 30.08 in 7.0 mi East 20.7 mph - N/A Snow Light Snow
10:46 AM 21.9 °F 7.3 °F 19.9 °F 92% 30.06 in 10.0 mi East 18.4 mph - 0.00 in   Overcast
10:53 AM 21.9 °F 6.9 °F 19.0 °F 89% 30.07 in 10.0 mi East 19.6 mph - 0.00 in   Overcast
11:06 AM 23.0 °F 7.2 °F 19.0 °F 85% 30.06 in 10.0 mi East 23.0 mph 32.2 mph N/A   Overcast
11:53 AM 21.9 °F 5.8 °F 19.0 °F 89% 30.06 in 3.0 mi East 23.0 mph 31.1 mph 0.00 in Snow Light Snow
12:43 PM 21.9 °F 6.2 °F 19.0 °F 89% 30.04 in 10.0 mi East 21.9 mph - 0.00 in   Overcast
12:51 PM 23.0 °F 8.0 °F 19.4 °F 86% 30.04 in 10.0 mi East 20.7 mph - 0.00 in   Overcast
12:53 PM 23.0 °F 8.3 °F 19.0 °F 85% 30.04 in 10.0 mi East 19.6 mph - 0.00 in   Overcast
1:53 PM 21.9 °F 6.2 °F 17.1 °F 82% 30.02 in 10.0 mi East 21.9 mph - N/A   Overcast
2:53 PM 21.9 °F 5.8 °F 18.0 °F 85% 29.99 in 10.0 mi East 23.0 mph 31.1 mph N/A   Overcast
3:53 PM 21.9 °F 5.1 °F 19.0 °F 89% 29.98 in 10.0 mi East 25.3 mph - N/A   Overcast
4:21 PM 21.9 °F 5.5 °F 19.0 °F 89% 29.97 in 9.0 mi East 24.2 mph - 0.00 in Snow Light Snow
4:51 PM 21.2 °F 4.9 °F 19.4 °F 93% 29.95 in 5.0 mi East 23.0 mph - 0.00 in Snow Light Snow
4:53 PM 21.9 °F 5.5 °F 19.9 °F 92% 29.95 in 4.0 mi East 24.2 mph 33.4 mph 0.00 in Snow Light Snow
5:08 PM 21.9 °F 4.2 °F 19.9 °F 92% 29.95 in 1.0 mi East 28.8 mph 36.8 mph 0.00 in Snow Light Snow
5:23 PM 21.9 °F 5.1 °F 19.9 °F 92% 29.94 in 1.0 mi East 25.3 mph - 0.00 in Snow Light Snow
5:53 PM 21.9 °F 5.1 °F 19.9 °F 92% 29.94 in 1.0 mi East 25.3 mph 34.5 mph 0.01 in Snow Light Snow
6:53 PM 21.9 °F 5.1 °F 19.9 °F 92% 29.93 in 1.0 mi East 25.3 mph 33.4 mph 0.01 in Snow Light Snow
7:25 PM 21.9 °F 5.1 °F 21.0 °F 96% 29.93 in 0.8 mi East 25.3 mph 33.4 mph 0.00 in Snow Light Snow
7:51 PM 21.2 °F 4.9 °F 21.2 °F 100% 29.93 in 1.0 mi East 23.0 mph 29.9 mph 0.01 in Snow Light Snow
7:53 PM 21.9 °F 6.2 °F 21.0 °F 96% 29.93 in 1.0 mi East 21.9 mph - 0.01 in Snow Light Snow
8:22 PM 23.0 °F 7.2 °F 21.0 °F 92% 29.93 in 1.0 mi East 23.0 mph - 0.01 in Snow Light Snow
8:51 PM 23.0 °F 6.9 °F 21.2 °F 93% 29.92 in 1.2 mi East 24.2 mph - 0.02 in Snow Light Snow
8:53 PM 23.0 °F 7.2 °F 21.9 °F 96% 29.92 in 1.2 mi East 23.0 mph - 0.02 in Snow Light Snow
9:34 PM 23.0 °F 6.9 °F 21.9 °F 96% 29.93 in 0.8 mi East 24.2 mph - 0.01 in Snow Light Snow
9:53 PM 23.0 °F 6.9 °F 21.9 °F 96% 29.93 in 0.8 mi East 24.2 mph - 0.02 in Snow Light Snow
10:29 PM 24.1 °F 8.3 °F 21.9 °F 91% 29.93 in 3.0 mi East 24.2 mph - 0.01 in Snow Light Snow
10:49 PM 24.8 °F 9.6 °F 21.2 °F 86% 29.92 in 1.2 mi East 23.0 mph - 0.01 in Snow Light Snow
10:53 PM 24.1 °F 8.7 °F 21.9 °F 91% 29.93 in 2.0 mi East 23.0 mph - 0.01 in Snow Light Snow
11:15 PM 24.1 °F 8.7 °F 23.0 °F 96% 29.93 in 5.0 mi East 23.0 mph - 0.01 in Snow Light Snow
11:53 PM 24.1 °F 10.1 °F 23.0 °F 96% 29.93 in 3.0 mi East 18.4 mph - 0.01 in Snow Light Snow